Location: Seattle
(47.6064°N, 122.3308°W)
Time: 12:51:08
(UTC-07:00)

SEEDS - Pass Details

Date: 10 April 2023
Orbit: 568 x 587 km, 97.7° (Epoch: 30 May)

Event Time Altitude Azimuth Distance (km) Brightness Sun altitude
Rises 04:40:52 0° 20° (NNE) 2,836 ? -17.7°
Reaches altitude 10° 04:43:10 10° 28° (NNE) 1,928 ? -17.4°
Maximum altitude 04:47:05 38° 97° (E) 903 ? -16.8°
Drops below altitude 10° 04:50:57 10° 167° (SSE) 1,905 ? -16.3°
Enters shadow 04:52:22 - 173° (S) 2,455 ? -16.1°
